Regional Weather Roundup
Issued by NWS

Home | Current Version | Previous Version | Graphics & Text | Print | Product List | Glossary Off
Versions: 1 2 3 4 5 6 7 8 9 10 11 12 13 14 15 16 17 18 19 20 21 22 23 24 25 26 27 28 29 30 31 32 33 34 35 36 37 38 39 40 41 42 43 44 45 46 47 48 49 50

000
ASUS43 KTOP 280459
RWRKS

WEATHER ROUNDUP FOR KANSAS
NATIONAL WEATHER SERVICE GOODLAND KS
1100 PM CST THU NOV 27 2014

NOTE:  "FAIR" INDICATES FEW OR NO CLOUDS BELOW 12,000 FEET WITH NO
SIGNIFICANT WEATHER AND/OR OBSTRUCTIONS TO VISIBILITY.

KSZ001>006-013>018-027>032-041>047-280600-
NORTHWEST KANSAS

CITY           SKY/WX    TMP DP  RH WIND       PRES   REMARKS
GOODLAND       CLEAR     44  26  49 W13       30.04F
HAYS           CLEAR     36  19  51 S3        30.04F
HILL CITY      CLEAR     36  24  62 W3        30.01F
RUSSELL        CLEAR     39  24  55 S20       30.03F WCI  29
$$

KSZ061>065-074>080-084>089-280600-
SOUTHWEST KANSAS

CITY           SKY/WX    TMP DP  RH WIND       PRES   REMARKS
DODGE CITY     CLEAR     41  24  51 S15       30.08F
ELKHART          N/A     48  28  46 SW10        N/A
GARDEN CITY    CLEAR     39  29  67 S10       30.06F WCI  32
GREAT BEND     CLEAR     37  21  52 S14       30.08F WCI  29
LIBERAL        MOCLDY    43  27  52 S12       30.11F
$$

KSZ066>073-081>083-090>101-280600-
SOUTHEAST KANSAS

CITY           SKY/WX    TMP DP  RH WIND       PRES   REMARKS
CHANUTE        CLEAR     31  24  75 SE8       30.26F
COFFEYVILLE    PTCLDY    33  25  72 SE6       30.28F
HUTCHINSON     CLEAR     40  23  50 S14       30.13F WCI  32
MEDICINE LODGE   N/A     37  25  61 S8        30.15F
NEWTON         CLEAR     36  18  48 S10       30.16F WCI  28
PARSONS        CLEAR     36  26  67 SE5       30.28F
WICHITA INTL   CLEAR     38  22  52 S14       30.17F WCI  30
WICHITA JABRA  CLEAR     38  22  52 S15       30.17F WCI  29
WINFIELD       CLEAR     37  23  56 S12       30.21F WCI  29
$$

KSZ007>012-019>026-033>040-048>060-102>105-280600-
NORTHEAST KANSAS

CITY           SKY/WX    TMP DP  RH WIND       PRES   REMARKS
CONCORDIA      CLEAR     35  19  52 S15G23    30.07F WCI  25
EMPORIA        CLEAR     31  22  69 S13       30.20F WCI  21
LAWRENCE       CLEAR     28  21  75 E8        30.27F
MANHATTAN      CLEAR     35  21  56 S9        30.18F
OLATHE IND     CLEAR     29  22  75 SE10      30.26F WCI  20
OLATHE EXE     CLEAR     30  23  75 S9        30.26F
SALINA         CLEAR     39  21  48 S15       30.11F WCI  31
TOPEKA BILLARD CLEAR     32  22  66 SE7       30.24F
TOPEKA FORBES  CLEAR     33  22  63 SE13      30.21F WCI  24
$$



USA.gov is the U.S. government's official web portal to all federal, state and local government web resources and services.